Torna al catalogo

STARLINK-36128

AttivoComunicazioniVLEO
NORAD 66873·PAYLOAD·🇺🇸 United States

Lanciato Dec 2, 2025 da Cape Canaveral Space Force Station

Loading…

Prossimi Passaggi (prossime 24 ore)

TLE

AggiornatoSource: CelesTrak SupGP

Epoca: Sep 14, 2026, 21:27 UTC

1 66873C 25281AB  26257.89423611 -.00005970  00000+0 -21631-3 0  2579
2 66873  43.0025 354.8723 0001548 278.1330  48.7471 15.27572373    14

Traccia STARLINK-36128 in tempo reale con AllMySat

Download on the App Store